TimeEST,TemperatureF,Dew PointF,Humidity,Sea Level PressureIn,VisibilityMPH,Wind Direction,Wind SpeedMPH,Gust SpeedMPH,PrecipitationIn,Events,Conditions,WindDirDegrees,DateUTC
12:03 AM,60.8,60.8,100,30.08,0.5,Calm,Calm,-,N/A,Fog,Fog,0,2013-01-03 05:03:00
12:07 AM,60.8,60.8,100,30.08,0.5,Calm,Calm,-,N/A,Fog,Fog,0,2013-01-03 05:07:00
12:11 AM,62.6,62.6,100,30.08,0.8,Calm,Calm,-,N/A,,Mist,0,2013-01-03 05:11:00
12:14 AM,62.6,62.6,100,30.08,1.0,Calm,Calm,-,N/A,,Mist,0,2013-01-03 05:14:00
12:28 AM,62.6,62.6,100,30.08,1.0,Calm,Calm,-,N/A,,Mist,0,2013-01-03 05:28:00
12:29 AM,62.6,62.6,100,30.08,1.0,Calm,Calm,-,N/A,,Mist,0,2013-01-03 05:29:00
12:31 AM,62.6,62.6,100,30.08,1.2,Calm,Calm,-,N/A,,Overcast,0,2013-01-03 05:31:00
12:35 AM,62.6,62.6,100,30.07,1.5,Calm,Calm,-,N/A,,Overcast,0,2013-01-03 05:35:00
12:38 AM,62.6,62.6,100,30.07,1.5,Calm,Calm,-,N/A,,Overcast,0,2013-01-03 05:38:00
12:41 AM,62.6,62.6,100,30.07,1.8,Calm,Calm,-,N/A,,Overcast,0,2013-01-03 05:41:00
12:45 AM,62.6,62.6,100,30.07,2.0,Calm,Calm,-,N/A,,Overcast,0,2013-01-03 05:45:00
12:48 AM,62.6,62.6,100,30.07,1.8,Calm,Calm,-,N/A,,Overcast,0,2013-01-03 05:48:00
12:51 AM,62.6,62.6,100,30.07,1.5,Calm,Calm,-,N/A,,Overcast,0,2013-01-03 05:51:00
12:53 AM,62.6,62.6,100,30.07,1.2,Calm,Calm,-,N/A,,Overcast,0,2013-01-03 05:53:00
12:55 AM,62.8,62.8,100,30.07,1.2,Calm,Calm,-,N/A,,Overcast,0,2013-01-03 05:55:00
12:56 AM,62.6,62.6,100,30.07,1.0,Calm,Calm,-,N/A,,Mist,0,2013-01-03 05:56:00
1:01 AM,62.6,62.6,100,30.07,1.0,Calm,Calm,-,N/A,,Mist,0,2013-01-03 06:01:00
1:02 AM,62.6,62.6,100,30.07,0.8,Calm,Calm,-,N/A,,Mist,0,2013-01-03 06:02:00
1:08 AM,62.6,62.6,100,30.07,0.8,Calm,Calm,-,N/A,,Mist,0,2013-01-03 06:08:00
1:17 AM,62.6,62.6,100,30.07,0.5,Calm,Calm,-,N/A,Fog,Fog,0,2013-01-03 06:17:00
1:27 AM,62.6,62.6,100,30.07,0.5,Calm,Calm,-,N/A,Fog,Fog,0,2013-01-03 06:27:00
1:55 AM,63.5,63.5,100,30.07,0.5,West,3.5,-,N/A,Fog,Fog,260,2013-01-03 06:55:00
2:39 AM,64.4,64.4,100,30.06,0.2,Calm,Calm,-,N/A,Fog,Fog,0,2013-01-03 07:39:00
2:55 AM,63.7,63.7,100,30.06,0.2,Calm,Calm,-,N/A,Fog,Fog,0,2013-01-03 07:55:00
3:38 AM,64.4,64.4,100,30.06,0.5,Calm,Calm,-,N/A,Fog,Fog,0,2013-01-03 08:38:00
3:46 AM,64.4,64.4,100,30.06,0.2,Calm,Calm,-,N/A,Fog,Fog,0,2013-01-03 08:46:00
3:55 AM,63.9,63.9,100,30.05,0.2,Calm,Calm,-,N/A,Fog,Fog,0,2013-01-03 08:55:00
4:55 AM,63.9,63.9,100,30.05,0.2,South,5.8,-,N/A,Fog,Fog,190,2013-01-03 09:55:00
5:55 AM,63.0,63.0,100,30.07,0.2,South,6.9,-,N/A,Fog,Fog,170,2013-01-03 10:55:00
5:57 AM,62.6,62.6,100,30.07,0.5,South,5.8,-,N/A,Fog,Fog,170,2013-01-03 10:57:00
5:59 AM,62.6,62.6,100,30.07,0.2,SSE,6.9,-,N/A,Fog,Fog,160,2013-01-03 10:59:00
6:30 AM,62.6,62.6,100,30.08,0.5,South,4.6,-,N/A,Fog,Fog,170,2013-01-03 11:30:00
6:36 AM,62.6,62.6,100,30.08,0.2,South,4.6,-,N/A,Fog,Fog,170,2013-01-03 11:36:00
6:52 AM,62.6,62.6,100,30.08,0.5,South,4.6,-,N/A,Fog,Fog,170,2013-01-03 11:52:00
6:55 AM,63.1,63.1,100,30.09,0.5,South,4.6,-,N/A,Fog,Fog,170,2013-01-03 11:55:00
7:05 AM,62.6,62.6,100,30.09,0.2,Calm,Calm,-,N/A,Fog,Fog,0,2013-01-03 12:05:00
7:16 AM,62.6,62.6,100,30.10,0.5,Calm,Calm,-,N/A,Fog,Fog,0,2013-01-03 12:16:00
7:19 AM,62.6,62.6,100,30.09,0.2,Calm,Calm,-,N/A,Fog,Fog,0,2013-01-03 12:19:00
7:45 AM,64.4,64.4,100,30.10,0.2,Calm,Calm,-,N/A,Fog,Fog,0,2013-01-03 12:45:00
7:50 AM,64.4,64.4,100,30.10,0.2,Calm,Calm,-,N/A,Fog,Fog,0,2013-01-03 12:50:00
7:55 AM,63.5,63.5,100,30.10,0.2,Calm,Calm,-,N/A,Fog,Fog,0,2013-01-03 12:55:00
7:56 AM,64.4,64.4,100,30.10,0.5,Calm,Calm,-,N/A,Fog,Fog,0,2013-01-03 12:56:00
7:59 AM,64.4,64.4,100,30.10,0.5,Calm,Calm,-,N/A,Fog,Fog,0,2013-01-03 12:59:00
8:03 AM,64.4,64.4,100,30.11,0.5,Calm,Calm,-,N/A,Fog,Fog,0,2013-01-03 13:03:00
8:24 AM,64.4,64.4,100,30.11,0.5,East,3.5,-,N/A,Fog,Fog,100,2013-01-03 13:24:00
8:34 AM,64.4,64.4,100,30.11,0.2,SE,3.5,-,N/A,Fog,Fog,130,2013-01-03 13:34:00
8:39 AM,64.4,64.4,100,30.11,0.2,Calm,Calm,-,N/A,Fog,Fog,0,2013-01-03 13:39:00
8:40 AM,64.4,64.4,100,30.11,0.2,Calm,Calm,-,N/A,Fog,Fog,0,2013-01-03 13:40:00
8:55 AM,64.4,64.4,100,30.11,0.2,SE,3.5,-,N/A,Fog,Fog,140,2013-01-03 13:55:00
9:08 AM,64.4,64.4,100,30.11,0.2,SE,3.5,-,N/A,Fog,Fog,140,2013-01-03 14:08:00
9:18 AM,64.4,64.4,100,30.12,0.2,SSW,4.6,-,N/A,Fog,Fog,200,2013-01-03 14:18:00
9:22 AM,64.4,64.4,100,30.12,0.2,SSW,4.6,-,N/A,Fog,Fog,200,2013-01-03 14:22:00
9:45 AM,64.4,64.4,100,30.12,0.2,SE,4.6,-,N/A,Fog,Fog,140,2013-01-03 14:45:00
9:52 AM,66.2,66.2,100,30.12,0.5,South,4.6,-,N/A,Fog,Fog,170,2013-01-03 14:52:00
9:55 AM,65.3,65.3,100,30.12,0.5,South,4.6,-,N/A,Fog,Fog,170,2013-01-03 14:55:00
9:58 AM,64.4,64.4,100,30.12,0.5,SSE,4.6,-,N/A,Fog,Fog,160,2013-01-03 14:58:00
10:09 AM,64.4,64.4,100,30.12,0.5,SE,4.6,-,N/A,Fog,Fog,140,2013-01-03 15:09:00
10:10 AM,64.4,64.4,100,30.12,0.5,SSE,4.6,-,N/A,Fog,Fog,150,2013-01-03 15:10:00
10:14 AM,64.4,64.4,100,30.12,0.8,SE,4.6,-,N/A,,Mist,130,2013-01-03 15:14:00
10:20 AM,64.4,64.4,100,30.13,0.8,SE,3.5,-,N/A,,Mist,130,2013-01-03 15:20:00
10:21 AM,64.4,64.4,100,30.12,0.8,SE,3.5,-,N/A,,Mist,130,2013-01-03 15:21:00
10:32 AM,66.2,66.2,100,30.12,0.8,SE,3.5,-,N/A,,Mist,130,2013-01-03 15:32:00
10:33 AM,66.2,66.2,100,30.12,0.8,SE,4.6,-,N/A,,Mist,130,2013-01-03 15:33:00
10:34 AM,66.2,66.2,100,30.12,1.0,ESE,4.6,-,N/A,,Mist,120,2013-01-03 15:34:00
10:35 AM,66.2,66.2,100,30.12,1.0,ESE,4.6,-,N/A,,Mist,120,2013-01-03 15:35:00
10:38 AM,66.2,66.2,100,30.12,1.2,SE,4.6,-,N/A,,Overcast,130,2013-01-03 15:38:00
10:41 AM,66.2,66.2,100,30.12,1.5,SSE,4.6,-,N/A,,Overcast,150,2013-01-03 15:41:00
10:44 AM,66.2,66.2,100,30.12,2.0,SE,5.8,-,N/A,,Overcast,140,2013-01-03 15:44:00
10:49 AM,66.2,66.2,100,30.12,3.0,Variable,3.5,-,N/A,,Overcast,0,2013-01-03 15:49:00
10:55 AM,66.7,66.7,100,30.12,4.0,SE,3.5,-,N/A,,Overcast,130,2013-01-03 15:55:00
11:08 AM,68.0,68.0,100,30.12,7.0,SE,3.5,-,N/A,,Overcast,140,2013-01-03 16:08:00
11:19 AM,68.0,68.0,100,30.11,7.0,ESE,4.6,-,N/A,,Overcast,110,2013-01-03 16:19:00
11:33 AM,68.0,68.0,100,30.11,10.0,ESE,5.8,-,N/A,,Mostly Cloudy,110,2013-01-03 16:33:00
11:35 AM,68.0,68.0,100,30.11,10.0,SE,4.6,-,N/A,,Mostly Cloudy,130,2013-01-03 16:35:00
11:36 AM,68.0,68.0,100,30.10,10.0,ESE,4.6,-,N/A,,Mostly Cloudy,120,2013-01-03 16:36:00
11:55 AM,70.7,70.7,100,30.09,10.0,ESE,4.6,-,N/A,,Partly Cloudy,110,2013-01-03 16:55:00
12:55 PM,75.4,71.6,88,30.07,10.0,ENE,3.5,-,N/A,,Scattered Clouds,70,2013-01-03 17:55:00
1:55 PM,74.3,68.4,82,30.05,10.0,Calm,Calm,-,N/A,,Mostly Cloudy,0,2013-01-03 18:55:00
2:55 PM,70.9,67.8,90,30.05,8.0,NNW,5.8,-,N/A,,Overcast,340,2013-01-03 19:55:00
3:41 PM,69.8,66.2,88,30.06,10.0,NNW,5.8,-,N/A,,Light Drizzle,340,2013-01-03 20:41:00
3:48 PM,69.8,66.2,88,30.05,10.0,North,3.5,-,N/A,,Overcast,360,2013-01-03 20:48:00
3:49 PM,69.8,66.2,88,30.05,10.0,North,4.6,-,N/A,,Light Drizzle,360,2013-01-03 20:49:00
3:53 PM,69.8,66.2,88,30.05,10.0,NNW,3.5,-,N/A,,Light Drizzle,340,2013-01-03 20:53:00
3:55 PM,69.6,66.9,91,30.06,10.0,NNW,3.5,-,0.00,,Light Drizzle,330,2013-01-03 20:55:00
4:55 PM,64.9,64.9,100,30.09,7.0,NNW,9.2,-,0.05,Rain,Light Rain,340,2013-01-03 21:55:00
5:31 PM,64.4,64.4,100,30.09,2.5,North,6.9,-,N/A,Rain,Heavy Rain,360,2013-01-03 22:31:00
5:40 PM,64.4,64.4,100,30.10,3.0,NNW,5.8,-,N/A,Rain,Light Rain,340,2013-01-03 22:40:00
5:48 PM,64.4,64.4,100,30.10,4.0,North,4.6,-,N/A,Rain,Rain,360,2013-01-03 22:48:00
5:52 PM,64.4,64.4,100,30.10,4.0,North,3.5,-,N/A,Rain,Light Rain,350,2013-01-03 22:52:00
5:55 PM,63.7,63.7,100,30.10,3.0,North,5.8,-,0.08,Rain,Heavy Rain,10,2013-01-03 22:55:00
6:06 PM,64.4,64.4,100,30.10,4.0,North,4.6,-,N/A,Rain,Light Rain,10,2013-01-03 23:06:00
6:19 PM,64.4,64.4,100,30.11,5.0,NW,4.6,-,N/A,Rain,Light Rain,320,2013-01-03 23:19:00
6:21 PM,64.4,64.4,100,30.11,5.0,NW,4.6,-,N/A,Rain,Light Rain,320,2013-01-03 23:21:00
6:33 PM,64.4,64.4,100,30.12,5.0,North,8.1,-,N/A,Rain,Light Rain,350,2013-01-03 23:33:00
6:37 PM,64.4,64.4,100,30.12,5.0,North,8.1,-,N/A,Rain,Light Rain,360,2013-01-03 23:37:00
6:50 PM,64.4,64.4,100,30.13,5.0,North,6.9,-,N/A,Rain,Light Rain,10,2013-01-03 23:50:00
6:51 PM,64.4,64.4,100,30.13,5.0,North,6.9,-,N/A,Rain,Light Rain,10,2013-01-03 23:51:00
6:52 PM,64.4,64.4,100,30.13,5.0,North,6.9,-,N/A,Rain,Light Rain,10,2013-01-03 23:52:00
6:55 PM,64.2,64.2,100,30.13,6.0,NNE,6.9,-,0.03,Rain,Light Rain,20,2013-01-03 23:55:00
6:59 PM,64.4,64.4,100,30.13,6.0,North,6.9,-,N/A,Rain,Light Rain,10,2013-01-03 23:59:00
7:00 PM,64.4,64.4,100,30.13,6.0,North,5.8,-,N/A,Rain,Light Rain,10,2013-01-04 00:00:00
7:01 PM,64.4,64.4,100,30.13,6.0,NNE,4.6,-,N/A,Rain,Light Rain,20,2013-01-04 00:01:00
7:02 PM,64.4,64.4,100,30.13,7.0,North,4.6,-,N/A,Rain,Light Rain,10,2013-01-04 00:02:00
7:05 PM,64.4,64.4,100,30.13,7.0,Variable,3.5,-,N/A,Rain,Light Rain,0,2013-01-04 00:05:00
7:08 PM,64.4,64.4,100,30.13,8.0,Variable,4.6,-,N/A,Rain,Light Rain,0,2013-01-04 00:08:00
7:12 PM,64.4,64.4,100,30.13,9.0,Variable,4.6,-,N/A,Rain,Light Rain,0,2013-01-04 00:12:00
7:27 PM,64.4,64.4,100,30.14,10.0,NE,11.5,-,N/A,,Overcast,50,2013-01-04 00:27:00
7:28 PM,64.4,64.4,100,30.14,10.0,NE,9.2,-,N/A,,Overcast,50,2013-01-04 00:28:00
7:31 PM,64.4,64.4,100,30.14,10.0,ENE,12.7,-,N/A,,Light Drizzle,60,2013-01-04 00:31:00
7:40 PM,62.6,62.6,100,30.14,10.0,NE,12.7,-,N/A,Rain,Light Rain,50,2013-01-04 00:40:00
7:53 PM,62.6,62.6,100,30.15,8.0,NE,13.8,-,N/A,Rain,Light Rain,50,2013-01-04 00:53:00
7:54 PM,62.6,62.6,100,30.15,8.0,NE,13.8,-,N/A,Rain,Light Rain,50,2013-01-04 00:54:00
7:55 PM,62.6,62.6,100,30.15,8.0,NE,11.5,-,0.01,Rain,Light Rain,50,2013-01-04 00:55:00
8:01 PM,62.6,62.6,100,30.16,8.0,NE,10.4,-,N/A,Rain,Light Rain,50,2013-01-04 01:01:00
8:04 PM,62.6,62.6,100,30.15,8.0,NE,11.5,-,N/A,Rain,Light Rain,50,2013-01-04 01:04:00
8:18 PM,62.6,62.6,100,30.15,8.0,NE,12.7,-,N/A,,Light Drizzle,50,2013-01-04 01:18:00
8:24 PM,60.8,60.8,100,30.15,8.0,ENE,16.1,-,N/A,,Light Drizzle,60,2013-01-04 01:24:00
8:36 PM,60.8,60.8,100,30.15,10.0,ENE,16.1,-,N/A,,Overcast,60,2013-01-04 01:36:00
8:50 PM,60.8,60.8,100,30.15,10.0,ENE,13.8,-,N/A,,Overcast,60,2013-01-04 01:50:00
8:55 PM,60.3,60.3,100,30.16,10.0,ENE,17.3,-,0.01,,Overcast,60,2013-01-04 01:55:00
9:03 PM,60.8,60.8,100,30.16,10.0,ENE,17.3,-,N/A,,Overcast,60,2013-01-04 02:03:00
9:14 PM,60.8,60.8,100,30.16,10.0,ENE,12.7,-,N/A,,Overcast,60,2013-01-04 02:14:00
9:15 PM,60.8,60.8,100,30.16,10.0,ENE,12.7,-,N/A,Rain,Light Rain,60,2013-01-04 02:15:00
9:24 PM,59.0,59.0,100,30.17,8.0,ENE,13.8,-,N/A,Rain,Light Rain,60,2013-01-04 02:24:00
9:32 PM,59.0,59.0,100,30.17,5.0,ENE,13.8,-,N/A,Rain,Light Rain,60,2013-01-04 02:32:00
9:39 PM,59.0,59.0,100,30.17,3.0,ENE,13.8,-,N/A,Rain,Heavy Rain,60,2013-01-04 02:39:00
9:46 PM,59.0,59.0,100,30.16,3.0,ENE,15.0,-,N/A,Rain,Rain,70,2013-01-04 02:46:00
9:51 PM,59.0,59.0,100,30.16,3.0,ENE,16.1,-,N/A,Rain,Light Rain,70,2013-01-04 02:51:00
9:55 PM,59.0,59.0,100,30.17,3.0,ENE,13.8,-,0.06,Rain,Light Rain,60,2013-01-04 02:55:00
10:10 PM,59.0,59.0,100,30.17,5.0,ENE,17.3,-,N/A,Rain,Light Rain,60,2013-01-04 03:10:00
10:18 PM,59.0,59.0,100,30.17,4.0,ENE,17.3,-,N/A,Rain,Light Rain,70,2013-01-04 03:18:00
10:28 PM,59.0,59.0,100,30.16,5.0,East,20.7,-,N/A,Rain,Light Rain,80,2013-01-04 03:28:00
10:31 PM,59.0,59.0,100,30.17,5.0,ENE,20.7,-,N/A,Rain,Light Rain,70,2013-01-04 03:31:00
10:32 PM,59.0,59.0,100,30.17,5.0,ENE,20.7,-,N/A,Rain,Light Rain,70,2013-01-04 03:32:00
10:52 PM,59.0,59.0,100,30.17,5.0,ENE,13.8,18.4,N/A,Rain,Rain,60,2013-01-04 03:52:00
10:55 PM,58.5,58.5,100,30.17,4.0,ENE,15.0,19.6,0.04,Rain,Light Rain,60,2013-01-04 03:55:00
10:56 PM,59.0,59.0,100,30.17,4.0,ENE,15.0,19.6,N/A,Rain,Light Rain,70,2013-01-04 03:56:00
11:08 PM,59.0,59.0,100,30.18,5.0,ENE,11.5,-,N/A,Rain,Light Rain,60,2013-01-04 04:08:00
11:12 PM,59.0,59.0,100,30.18,5.0,NE,9.2,-,N/A,Rain,Light Rain,50,2013-01-04 04:12:00
11:21 PM,59.0,59.0,100,30.18,6.0,ENE,10.4,-,N/A,Rain,Light Rain,60,2013-01-04 04:21:00
11:25 PM,59.0,59.0,100,30.18,7.0,NE,8.1,-,N/A,Rain,Light Rain,50,2013-01-04 04:25:00
11:29 PM,59.0,59.0,100,30.18,6.0,NE,6.9,-,N/A,Rain,Light Rain,50,2013-01-04 04:29:00
11:55 PM,58.8,58.8,100,30.17,6.0,East,13.8,-,0.03,Rain,Light Rain,80,2013-01-04 04:55:00
11:58 PM,59.0,59.0,100,30.17,6.0,ENE,11.5,-,N/A,Rain,Light Rain,70,2013-01-04 04:58:00